User: anonymous   Login
Location: Brachbach
(49.1847°N, 9.7240°E)
Time: 07:32:27
(UTC+00:00)
Language:

LilacSat-2 - Orbit

View from above orbital plane
View from above orbital plane
View from above satellite
View from above satellite

Ground track
Ground track

The orbit is defined by the following mean orbital elements,

1 40908U          26069.93693139 +.00000000 +00000-0 +40012-3 0 00000
2 40908  97.4809 103.2049 0005752 239.4779 120.5904 15.48079231    00
Epoch (UTC): 10 March 2026 22:29:10
Eccentricity: 0.0005752
inclination: 97.4809°
perigee height: 418 km
apogee height: 426 km
right ascension of ascending node: 103.2049°
argument of perigee: 239.4779°
revolutions per day: 15.48079231
mean anomaly at epoch: 120.5904°

The dashed part of the orbit path shows where the satellite is in the earth's shadow,  

DLR